TimePDT,TemperatureF,Dew PointF,Humidity,Sea Level PressureIn,VisibilityMPH,Wind Direction,Wind SpeedMPH,Gust SpeedMPH,PrecipitationIn,Events,Conditions,WindDirDegrees,DateUTC
12:53 AM,50.0,36.0,59,29.93,10.0,WNW,8.1,-,N/A,,Clear,300,2013-05-24 07:53:00
1:53 AM,48.0,37.0,66,29.93,10.0,NNW,3.5,-,N/A,,Clear,340,2013-05-24 08:53:00
2:53 AM,48.0,37.0,66,29.93,10.0,WNW,5.8,-,N/A,,Clear,300,2013-05-24 09:53:00
3:53 AM,48.0,37.0,66,29.92,10.0,NW,9.2,-,N/A,,Overcast,320,2013-05-24 10:53:00
4:53 AM,46.0,37.0,71,29.93,10.0,North,9.2,-,N/A,,Clear,10,2013-05-24 11:53:00
5:53 AM,45.0,37.0,74,29.93,10.0,NNE,5.8,-,N/A,,Mostly Cloudy,20,2013-05-24 12:53:00
6:53 AM,46.9,39.0,74,29.93,10.0,NNE,9.2,-,N/A,,Scattered Clouds,20,2013-05-24 13:53:00
7:53 AM,46.9,35.1,63,29.94,10.0,ENE,10.4,-,N/A,,Mostly Cloudy,60,2013-05-24 14:53:00
8:53 AM,48.0,37.0,66,29.96,10.0,East,6.9,-,0.00,Rain,Light Rain,80,2013-05-24 15:53:00
9:53 AM,48.0,39.9,74,29.96,10.0,Calm,Calm,-,0.00,Rain,Light Rain,0,2013-05-24 16:53:00
10:53 AM,46.9,41.0,80,29.97,10.0,SE,4.6,-,0.02,,Overcast,140,2013-05-24 17:53:00
11:53 AM,48.9,42.1,77,29.98,10.0,Calm,Calm,-,0.00,Rain,Light Rain,0,2013-05-24 18:53:00
12:33 PM,51.8,42.8,71,29.96,10.0,SE,4.6,-,0.00,,Overcast,140,2013-05-24 19:33:00
12:53 PM,53.1,43.0,69,29.97,10.0,Variable,3.5,-,0.00,,Overcast,0,2013-05-24 19:53:00
1:03 PM,53.6,42.8,67,29.96,10.0,ESE,8.1,-,N/A,,Overcast,120,2013-05-24 20:03:00
1:11 PM,53.6,42.8,67,29.96,10.0,ESE,3.5,-,N/A,,Overcast,110,2013-05-24 20:11:00
1:53 PM,54.0,42.1,64,29.97,10.0,Variable,6.9,-,N/A,,Overcast,0,2013-05-24 20:53:00
2:06 PM,53.6,42.8,67,29.96,10.0,SSE,9.2,-,N/A,,Overcast,150,2013-05-24 21:06:00
2:20 PM,53.6,42.8,67,29.96,10.0,South,8.1,-,N/A,,Overcast,180,2013-05-24 21:20:00
2:53 PM,55.0,42.1,62,29.96,10.0,Variable,4.6,-,N/A,,Mostly Cloudy,0,2013-05-24 21:53:00
3:31 PM,57.2,42.8,59,29.95,10.0,SSE,6.9,-,N/A,,Overcast,160,2013-05-24 22:31:00
3:53 PM,57.0,41.0,55,29.97,10.0,South,6.9,18.4,N/A,,Mostly Cloudy,190,2013-05-24 22:53:00
4:53 PM,57.0,39.9,53,29.97,10.0,Variable,3.5,-,N/A,,Mostly Cloudy,0,2013-05-24 23:53:00
5:53 PM,57.9,39.0,49,29.97,10.0,Variable,3.5,-,N/A,,Scattered Clouds,0,2013-05-25 00:53:00
6:53 PM,57.0,37.0,47,29.98,10.0,NNW,4.6,-,N/A,,Clear,340,2013-05-25 01:53:00
7:53 PM,55.9,39.9,55,29.97,10.0,ESE,3.5,-,N/A,,Clear,110,2013-05-25 02:53:00
8:53 PM,48.9,41.0,74,29.98,10.0,SSW,4.6,-,N/A,,Clear,200,2013-05-25 03:53:00
9:53 PM,48.0,39.9,74,29.99,10.0,Calm,Calm,-,N/A,,Clear,0,2013-05-25 04:53:00
10:53 PM,43.0,39.0,86,29.99,10.0,SSW,4.6,-,N/A,,Clear,210,2013-05-25 05:53:00
11:53 PM,46.9,41.0,80,29.99,10.0,Calm,Calm,-,N/A,,Clear,0,2013-05-25 06:53:00